Location: Rehoboth Beach
(38.7438°N, 75.1341°W)
Time: 05:29:52
(UTC-04:00)

Cosmos 1452 Rocket - Visible Passes

Search period start: 29 April 2017 00:00
Search period end: 09 May 2017 00:00
Orbit: 769 x 774 km, 74.1° (Epoch: 27 April)

Date Brightness Start Highest point End Pass type
(mag) Time Alt. Az. Time Alt. Az. Time Alt. Az.
29 Apr 3.8 03:43:35 10° NNW 03:48:49 64° ENE 03:54:01 10° SSE visible
29 Apr 5.2 05:27:46 10° WNW 05:30:18 14° W 05:32:50 10° WSW visible
30 Apr 4.8 03:07:46 10° N 03:12:40 38° ENE 03:16:57 13° SE visible
30 Apr 4.6 04:50:25 10° NW 04:54:32 24° W 04:57:09 16° SW visible
01 May 5.6 02:32:14 10° N 02:36:25 23° ENE 02:39:57 13° ESE visible
01 May 3.9 04:13:47 10° NNW 04:18:41 41° WSW 04:20:11 33° SW visible
02 May 6.1 01:57:11 10° NNE 02:00:04 15° ENE 02:02:56 10° E visible
02 May 3.4 03:37:30 10° NNW 03:42:45 71° WSW 03:43:36 59° SSW visible
03 May 3.7 03:01:28 10° NNW 03:06:43 68° ENE 03:07:17 63° ESE visible
03 May 5.3 04:45:54 10° WNW 04:47:32 13° W 04:47:32 13° W visible
04 May 4.5 02:25:38 10° N 02:30:35 40° ENE 02:31:06 39° E visible
04 May 4.9 04:08:24 10° NW 04:11:23 21° W 04:11:23 21° W visible
05 May 5.3 01:50:04 10° N 01:54:21 25° ENE 01:55:03 24° ENE visible
05 May 4.4 03:31:44 10° NW 03:35:20 33° WNW 03:35:20 33° WNW visible
06 May 5.9 01:14:56 10° NNE 01:18:01 15° ENE 01:19:06 15° ENE visible
06 May 4.0 02:55:25 10° NNW 02:59:23 49° NW 02:59:23 49° NW visible
07 May 4.1 02:19:22 10° NNW 02:23:31 54° N 02:23:31 54° N visible
08 May 4.6 01:43:30 10° N 01:47:42 40° NE 01:47:42 40° NE visible
08 May 5.4 03:26:23 10° NW 03:28:00 16° WNW 03:28:00 16° WNW visible
